Location: Kendal
(54.3260°N, 2.7460°W)
Time: 06:56:50
(UTC+00:00)

ISS - Visible Passes

Search period start: 27 January 2022 00:00
Search period end: 06 February 2022 00:00
Orbit: 413 x 422 km, 51.6° (Epoch: 27 January)

Date Brightness Start Highest point End Pass type
(mag) Time Alt. Az. Time Alt. Az. Time Alt. Az.
27 Jan -3.3 18:03:07 10° WSW 18:06:24 52° S 18:08:30 19° ESE visible
27 Jan -1.6 19:39:43 10° W 19:41:26 25° WSW 19:41:26 25° WSW visible
28 Jan -3.2 18:51:40 10° W 18:54:55 48° S 18:55:22 44° SSE visible
29 Jan -3.2 18:03:36 10° W 18:06:52 53° S 18:09:18 16° ESE visible
29 Jan -1.5 19:40:22 10° W 19:42:14 23° WSW 19:42:14 23° WSW visible
30 Jan -2.5 18:52:12 10° W 18:55:17 35° SSW 18:56:14 28° SSE visible
31 Jan -2.7 18:04:05 10° W 18:07:15 42° SSW 18:10:18 11° ESE visible
31 Jan -1.2 19:41:16 10° WSW 19:43:14 16° SW 19:43:14 16° SW visible
01 Feb -1.6 18:52:52 10° W 18:55:31 22° SSW 18:57:23 14° SSE visible
02 Feb -1.9 18:04:35 10° W 18:07:31 28° SSW 18:10:26 10° SE visible
03 Feb -0.8 18:54:07 10° WSW 18:55:32 12° SW 18:56:57 10° SSW visible
04 Feb -0.9 18:05:19 10° WSW 18:07:34 17° SSW 18:09:49 10° S visible
